Location: Northcutt
(34.7304°N, 84.4305°W)
Time: 00:18:28
(UTC+00:00)

A-11 Canister half - Visible Passes

Search period start: 11 December 2023 00:00
Search period end: 21 December 2023 00:00
Orbit: 1525 x 1683 km, 47.3° (Epoch: 09 December)

Date Brightness Start Highest point End Pass type
(mag) Time Alt. Az. Time Alt. Az. Time Alt. Az.
11 Dec 9.6 00:14:39 10° W 00:24:29 52° NNW 00:29:49 29° NE visible
11 Dec 10.2 02:22:14 10° WNW 02:28:07 32° NW 02:28:07 32° NW visible
11 Dec 9.6 23:52:46 10° W 00:02:38 53° NNW 00:09:18 23° NE visible
12 Dec 10.0 02:00:22 10° WNW 02:07:35 37° NNW 02:07:35 37° NNW visible
12 Dec 9.6 23:30:55 10° W 23:40:48 54° NNW 23:48:46 17° NE visible
13 Dec 9.8 01:38:29 10° WNW 01:47:03 40° N 01:47:03 40° N visible
13 Dec 11.3 03:44:47 10° NW 03:45:21 12° NW 03:45:21 12° NW visible
13 Dec 9.6 23:09:03 10° W 23:18:58 56° NNW 23:28:13 13° NE visible
14 Dec 9.7 01:16:37 10° WNW 01:26:02 40° N 01:26:31 40° N visible
14 Dec 11.0 03:22:59 10° NW 03:24:48 17° NW 03:24:48 17° NW visible
14 Dec 9.6 22:47:12 10° WSW 22:57:08 58° NNW 23:07:08 10° NE visible
15 Dec 9.7 00:54:44 10° WNW 01:04:09 40° N 01:05:58 38° NNE visible
15 Dec 10.7 03:01:11 10° NW 03:04:15 22° NW 03:04:15 22° NW visible
16 Dec 9.7 00:32:51 10° WNW 00:42:17 40° N 00:45:26 33° NE visible
16 Dec 10.4 02:39:23 10° NW 02:43:44 28° NW 02:43:44 28° NW visible
17 Dec 9.8 00:10:59 10° WNW 00:20:24 40° N 00:24:55 28° NE visible
17 Dec 10.1 02:17:34 10° NW 02:23:13 35° NW 02:23:13 35° NW visible
17 Dec 9.8 23:49:06 10° WNW 23:58:31 40° N 00:04:26 22° NE visible
18 Dec 9.8 01:55:47 10° NW 02:02:43 42° NNW 02:02:43 42° NNW visible
18 Dec 9.8 23:27:14 10° WNW 23:36:39 41° N 23:43:57 17° ENE visible
19 Dec 9.5 01:33:58 10° NW 01:42:15 48° N 01:42:15 48° N visible
19 Dec 11.1 03:39:26 10° WNW 03:40:33 14° WNW 03:40:33 14° WNW visible
19 Dec 9.8 23:05:21 10° WNW 23:14:46 41° N 23:23:31 12° ENE visible
20 Dec 9.4 01:12:10 10° NW 01:21:49 50° NNE 01:21:49 50° NNE visible
20 Dec 10.8 03:17:38 10° WNW 03:20:06 20° WNW 03:20:06 20° WNW visible
20 Dec 9.8 22:43:28 10° WNW 22:52:54 41° N 23:02:21 10° ENE visible
